TimePDT,TemperatureF,Dew PointF,Humidity,Sea Level PressureIn,VisibilityMPH,Wind Direction,Wind SpeedMPH,Gust SpeedMPH,PrecipitationIn,Events,Conditions,WindDirDegrees,DateUTC
12:53 AM,46.0,33.1,61,30.09,10.0,North,4.6,-,N/A,,Clear,360,2013-04-17 07:53:00
1:53 AM,46.9,33.1,59,30.09,10.0,North,10.4,-,N/A,,Clear,350,2013-04-17 08:53:00
2:53 AM,44.1,33.1,65,30.10,10.0,Calm,Calm,-,N/A,,Clear,0,2013-04-17 09:53:00
3:53 AM,39.9,30.9,70,30.11,10.0,SSW,3.5,-,N/A,,Clear,210,2013-04-17 10:53:00
4:53 AM,41.0,32.0,70,30.12,10.0,Calm,Calm,-,N/A,,Clear,0,2013-04-17 11:53:00
5:53 AM,37.9,30.9,76,30.13,10.0,SW,3.5,-,N/A,,Clear,230,2013-04-17 12:53:00
7:53 AM,46.0,33.1,61,30.19,10.0,North,3.5,-,N/A,,Clear,360,2013-04-17 14:53:00
8:53 AM,52.0,30.9,45,30.19,10.0,NW,10.4,-,N/A,,Clear,320,2013-04-17 15:53:00
9:53 AM,57.9,27.0,31,30.19,10.0,NW,12.7,-,N/A,,Clear,310,2013-04-17 16:53:00
10:53 AM,62.1,24.1,23,30.18,10.0,NW,12.7,-,N/A,,Clear,320,2013-04-17 17:53:00
11:53 AM,66.0,21.9,19,30.17,10.0,NW,18.4,-,N/A,,Clear,320,2013-04-17 18:53:00
12:53 PM,66.9,21.0,17,30.15,10.0,NNW,11.5,23.0,N/A,,Clear,330,2013-04-17 19:53:00
1:53 PM,70.0,18.0,14,30.13,10.0,NE,10.4,-,N/A,,Clear,50,2013-04-17 20:53:00
2:53 PM,71.1,16.0,12,30.12,10.0,North,15.0,18.4,N/A,,Clear,350,2013-04-17 21:53:00
3:53 PM,72.0,17.1,12,30.10,10.0,WNW,13.8,19.6,N/A,,Clear,290,2013-04-17 22:53:00
4:53 PM,72.0,19.0,13,30.09,10.0,NNW,13.8,-,N/A,,Clear,340,2013-04-17 23:53:00
5:53 PM,71.1,21.0,15,30.10,10.0,North,17.3,-,N/A,,Clear,350,2013-04-18 00:53:00
6:53 PM,66.9,23.0,19,30.12,10.0,NNW,16.1,-,N/A,,Clear,330,2013-04-18 01:53:00
7:53 PM,63.0,25.0,24,30.13,10.0,NNW,15.0,-,N/A,,Clear,340,2013-04-18 02:53:00
8:53 PM,57.9,24.1,27,30.17,10.0,NNW,4.6,-,N/A,,Clear,340,2013-04-18 03:53:00
9:53 PM,55.9,26.1,32,30.19,10.0,NNW,9.2,-,N/A,,Clear,330,2013-04-18 04:53:00
10:53 PM,53.1,30.0,41,30.21,10.0,NW,13.8,-,N/A,,Clear,320,2013-04-18 05:53:00
11:53 PM,51.1,30.9,46,30.21,10.0,NNW,6.9,-,N/A,,Clear,330,2013-04-18 06:53:00